Location: Newcastle Observatory
(43.9158°N, 78.5831°W)
Time: 13:34:51
(UTC-04:00)

Amateur Radio Satellites - All Passes

Search period start: 31 July 2014 13:04
Search period end: 01 August 2014 13:04
Location: Newcastle Observatory, 43.9158°N, 78.5831°W

Satellite Date Start Highest point End Downlink Frequencies (MHz)
Time Altitude Azimuth
Oscar 19 31 Jul 13:05:36 13:10:02 31° 66° (ENE) 13:14:31 437.125 CW, 437.150 USB
FUNcube-1 31 Jul 13:08:56 13:11:18 15° 297° (WNW) 13:13:40 145.950 - 145.970 MHz USB
Oscar 16 31 Jul 13:33:46 13:38:46 57° 71° (ENE) 13:43:48 437.025 USB, Beacon 2401.1428
SO-50 31 Jul 13:47:20 13:51:19 30° 316° (NW) 13:55:23 436.795 FM
KITSAT 1 31 Jul 13:50:22 13:57:37 34° 40° (NE) 14:04:49 435.175 FM
AO-7 31 Jul 13:52:24 13:54:52 12° 38° (NE) 13:57:19 29.400 - 29.500 MHz
UOSAT-12 31 Jul 13:52:58 13:57:05 33° 115° (ESE) 14:01:16 437.025 FM, 437.400 FM
RS-15 31 Jul 13:59:28 14:10:35 82° 121° (ESE) 14:21:32 29.354 - 29.394 USB, Beacon 29.352 USB
ITAMSAT 1 31 Jul 14:00:13 14:05:11 46° 69° (ENE) 14:10:09 435.822 SSB
Uribyol 2 31 Jul 14:18:45 14:23:54 71° 73° (ENE) 14:29:05 436.500 FM
AO-27 31 Jul 14:19:53 14:25:04 70° 73° (ENE) 14:30:17 436.795 MHz FM
TMSAT-1 31 Jul 14:32:06 14:36:36 29° 65° (ENE) 14:41:06 436.925 FM
AO-Echo 31 Jul 14:39:00 14:44:20 80° 257° (WSW) 14:49:40 ?
Oscar 19 31 Jul 14:44:40 14:49:18 35° 263° (W) 14:53:59 437.125 CW, 437.150 USB
JAS-1B 31 Jul 14:46:36 14:55:42 76° 71° (ENE) 15:05:39 435.800 - 435.900 CW/SSB
Gurwin Techsat 1B 31 Jul 14:57:19 15:02:34 64° 72° (ENE) 15:07:50 435.225 FM
Uosat F 31 Jul 15:03:16 15:05:40 14° 58° (ENE) 15:08:05 435.120 FM
Oscar 16 31 Jul 15:14:59 15:18:30 18° 269° (W) 15:22:01 437.025 USB, Beacon 2401.1428
Saudisat 1A 31 Jul 15:17:46 15:21:45 31° 45° (NE) 15:25:42 436.775 MHz
UOSAT-12 31 Jul 15:32:57 15:37:12 35° 314° (NW) 15:41:32 437.025 FM, 437.400 FM
AO-7 31 Jul 15:37:45 15:45:30 45° 60° (ENE) 15:53:16 29.400 - 29.500 MHz
ITAMSAT 1 31 Jul 15:40:44 15:44:53 24° 266° (W) 15:49:03 435.822 SSB
KITSAT 1 31 Jul 15:45:38 15:53:40 71° 243° (WSW) 16:01:38 435.175 FM
Uribyol 2 31 Jul 16:00:58 16:03:54 15° 270° (W) 16:06:51 436.500 FM
AO-27 31 Jul 16:02:04 16:05:06 16° 270° (W) 16:08:09 436.795 MHz FM
OPAL 31 Jul 16:02:55 16:04:16 11° 90° (E) 16:05:37 ?
TMSAT-1 31 Jul 16:11:24 16:16:21 40° 262° (W) 16:21:20 436.925 FM
RS-15 31 Jul 16:14:11 16:24:10 38° 328° (NNW) 16:34:09 29.354 - 29.394 USB, Beacon 29.352 USB
AO-Echo 31 Jul 16:23:13 16:23:53 10° 274° (W) 16:24:33 ?
Uosat F 31 Jul 16:38:41 16:43:44 88° 255° (WSW) 16:48:49 435.120 FM
JAS-1B 31 Jul 16:39:22 16:47:01 29° 272° (W) 16:55:16 435.800 - 435.900 CW/SSB
Gurwin Techsat 1B 31 Jul 16:39:30 16:42:59 18° 270° (W) 16:46:29 435.225 FM
Saudisat 1A 31 Jul 16:57:22 17:01:20 33° 244° (WSW) 17:05:17 436.775 MHz
JAS-2 31 Jul 17:09:09 17:15:03 26° 60° (ENE) 17:20:35 435.800 - 435.900 CW/SSB, 435.910 FM
Hamsat 31 Jul 17:15:12 17:17:49 16° 64° (ENE) 17:20:26 145.90 MHz
AO-7 31 Jul 17:30:18 17:38:14 47° 260° (W) 17:46:14 29.400 - 29.500 MHz
OPAL 31 Jul 17:38:42 17:43:49 88° 107° (ESE) 17:48:58 ?
KITSAT 1 31 Jul 17:44:00 17:47:35 14° 262° (W) 17:51:10 435.175 FM
Uosat F 31 Jul 18:22:16 18:23:15 11° 273° (W) 18:24:13 435.120 FM
RS-15 31 Jul 18:32:14 18:40:45 25° 2° (N) 18:49:21 29.354 - 29.394 USB, Beacon 29.352 USB
Hamsat 31 Jul 18:49:21 18:53:24 49° 261° (W) 18:57:30 145.90 MHz
JAS-2 31 Jul 18:51:44 18:59:30 76° 257° (WSW) 19:06:41 435.800 - 435.900 CW/SSB, 435.910 FM
SO-67 31 Jul 18:54:56 18:57:50 25° 70° (ENE) 19:00:45 435.3500 MHz FM
SO-50 31 Jul 18:57:30 18:59:28 12° 30° (NNE) 19:01:27 436.795 FM
HO-68 31 Jul 19:08:10 19:10:58 13° 46° (NE) 19:13:45 435.675 MHz FM
OPAL 31 Jul 19:19:24 19:22:01 14° 304° (NW) 19:24:38 ?
STRAND 1 31 Jul 20:06:37 20:11:45 76° 103° (ESE) 20:16:50 ?
MaSat-1 31 Jul 20:24:33 20:27:50 23° 103° (ESE) 20:31:30 437.345 MHz
SO-67 31 Jul 20:28:19 20:30:54 19° 266° (W) 20:33:29 435.3500 MHz FM
SO-50 31 Jul 20:36:27 20:41:06 53° 51° (NE) 20:45:49 436.795 FM
JAS-2 31 Jul 20:41:31 20:45:25 15° 274° (W) 20:49:12 435.800 - 435.900 CW/SSB, 435.910 FM
UOSAT-12 31 Jul 20:42:36 20:44:02 11° 27° (NNE) 20:45:28 437.025 FM, 437.400 FM
RS-15 31 Jul 20:46:52 20:57:07 41° 36° (NE) 21:07:35 29.354 - 29.394 USB, Beacon 29.352 USB
HO-68 31 Jul 20:50:13 20:57:11 57° 67° (ENE) 21:04:09 435.675 MHz FM
UKube-1 31 Jul 21:17:07 21:21:20 49° 71° (ENE) 21:25:33 145.840 MHz, 145.915 MHz
STRAND 1 31 Jul 21:47:21 21:50:19 16° 301° (WNW) 21:53:16 ?
Oscar 11 31 Jul 21:58:57 22:03:13 68° 74° (ENE) 22:07:31 145.825 FM, Beacon 2401.500 USB
MaSat-1 31 Jul 22:00:43 22:04:48 41° 305° (NW) 22:09:27 437.345 MHz
ISS 31 Jul 22:05:52 22:07:39 14° 132° (SE) 22:09:27 145.800 FM
SO-50 31 Jul 22:17:44 22:21:21 22° 248° (WSW) 22:25:00 436.795 FM
UOSAT-12 31 Jul 22:20:51 22:25:25 45° 49° (NE) 22:29:55 437.025 FM, 437.400 FM
FUNcube-1 31 Jul 22:28:59 22:33:08 52° 73° (ENE) 22:37:15 145.950 - 145.970 MHz USB
HO-68 31 Jul 22:39:08 22:45:13 30° 265° (W) 22:51:21 435.675 MHz FM
UKube-1 31 Jul 22:55:01 22:57:48 17° 268° (W) 23:00:37 145.840 MHz, 145.915 MHz
RS-15 31 Jul 22:59:25 23:10:23 74° 241° (WSW) 23:21:47 29.354 - 29.394 USB, Beacon 29.352 USB
Sapphire 31 Jul 23:17:33 23:19:39 12° 102° (ESE) 23:21:46 437.095 MHz 1200 baud AX-25 AFSK
Oscar 11 31 Jul 23:38:24 23:39:52 12° 271° (W) 23:41:21 145.825 FM, Beacon 2401.500 USB
ISS 31 Jul 23:40:36 23:43:57 83° 329° (NNW) 23:47:19 145.800 FM
PCSat 31 Jul 23:47:57 23:52:19 26° 108° (ESE) 23:56:44 145.825 MHz
AO-40 31 Jul 23:56:56 05:30:51 37° 181° (S) 10:27:38 Beacon 2401.320
UOSAT-12 01 Aug 00:01:29 00:05:20 25° 247° (WSW) 00:09:09 437.025 FM, 437.400 FM
FUNcube-1 01 Aug 00:07:30 00:09:51 14° 269° (W) 00:12:11 145.950 - 145.970 MHz USB
Sapphire 01 Aug 00:56:49 01:02:13 87° 120° (ESE) 01:07:41 437.095 MHz 1200 baud AX-25 AFSK
RS-15 01 Aug 01:14:24 01:20:46 17° 262° (W) 01:27:18 29.354 - 29.394 USB, Beacon 29.352 USB
ISS 01 Aug 01:18:10 01:21:01 25° 348° (NNW) 01:23:53 145.800 FM
PCSat 01 Aug 01:30:11 01:35:26 50° 307° (NW) 01:40:44 145.825 MHz
Oscar 10/S400 01 Aug 01:33:26 02:10:03 60° 186° (S) 10:48:08 145.825 - 145.975 CW/USB, Beacon 145.810 USB
Oscar 16 01 Aug 01:45:02 01:48:33 18° 91° (E) 01:52:04 437.025 USB, Beacon 2401.1428
ITAMSAT 1 01 Aug 02:13:14 02:15:58 14° 89° (E) 02:18:41 435.822 SSB
Uribyol 2 01 Aug 02:30:51 02:34:51 22° 93° (E) 02:38:50 436.500 FM
AO-27 01 Aug 02:32:20 02:36:20 22° 93° (E) 02:40:19 436.795 MHz FM
JAS-1B 01 Aug 02:33:26 02:40:25 24° 85° (E) 02:46:36 435.800 - 435.900 CW/SSB
Sapphire 01 Aug 02:42:32 02:46:23 19° 320° (NW) 02:50:15 437.095 MHz 1200 baud AX-25 AFSK
AO-Echo 01 Aug 02:45:41 02:50:05 30° 95° (E) 02:54:21 ?
Oscar 19 01 Aug 02:54:07 02:59:19 75° 103° (ESE) 03:04:30 437.125 CW, 437.150 USB
ISS 01 Aug 02:55:44 02:58:29 23° 8° (N) 03:01:15 145.800 FM
Gurwin Techsat 1B 01 Aug 03:12:50 03:16:59 23° 93° (E) 03:21:06 435.225 FM
OPAL 01 Aug 03:17:46 03:21:44 25° 61° (ENE) 03:25:44 ?
PCSat 01 Aug 03:18:02 03:20:12 12° 329° (NNW) 03:22:23 145.825 MHz
Oscar 16 01 Aug 03:23:13 03:28:18 59° 288° (WNW) 03:33:22 437.025 USB, Beacon 2401.1428
ITAMSAT 1 01 Aug 03:50:51 03:56:02 74° 287° (WNW) 04:01:10 435.822 SSB
Uribyol 2 01 Aug 04:09:37 04:14:35 48° 290° (WNW) 04:19:30 436.500 FM
AO-27 01 Aug 04:11:07 04:16:06 48° 290° (WNW) 04:21:03 436.795 MHz FM
JAS-1B 01 Aug 04:22:42 04:32:05 81° 288° (WNW) 04:40:00 435.800 - 435.900 CW/SSB
AO-Echo 01 Aug 04:24:21 04:28:52 34° 293° (WNW) 04:33:15 ?
KITSAT 1 01 Aug 04:25:03 04:28:41 14° 98° (E) 04:32:18 435.175 FM
TMSAT-1 01 Aug 04:25:20 04:30:39 74° 103° (ESE) 04:35:56 436.925 FM
ISS 01 Aug 04:32:22 04:35:42 59° 28° (NNE) 04:39:01 145.800 FM
Oscar 19 01 Aug 04:34:56 04:38:03 16° 301° (WNW) 04:41:10 437.125 CW, 437.150 USB
MaSat-1 01 Aug 04:41:17 04:44:16 15° 41° (NE) 04:47:11 437.345 MHz
Uosat F 01 Aug 04:45:38 04:49:46 25° 95° (E) 04:53:53 435.120 FM
Gurwin Techsat 1B 01 Aug 04:52:06 04:57:13 49° 290° (WNW) 05:02:18 435.225 FM
OPAL 01 Aug 04:55:42 05:00:23 43° 259° (W) 05:05:08 ?
AO-7 01 Aug 05:29:40 05:37:53 58° 103° (ESE) 05:46:00 29.400 - 29.500 MHz
ITAMSAT 1 01 Aug 05:33:11 05:34:37 11° 305° (NW) 05:36:03 435.822 SSB
STRAND 1 01 Aug 05:47:03 05:50:26 18° 60° (ENE) 05:53:49 ?
JAS-2 01 Aug 06:04:01 06:05:50 11° 84° (E) 06:07:36 435.800 - 435.900 CW/SSB, 435.910 FM
TMSAT-1 01 Aug 06:06:41 06:09:58 17° 301° (WNW) 06:13:14 436.925 FM
ISS 01 Aug 06:09:34 06:12:10 21° 225° (SW) 06:14:45 145.800 FM
JAS-1B 01 Aug 06:14:26 06:21:01 22° 311° (NW) 06:27:04 435.800 - 435.900 CW/SSB
KITSAT 1 01 Aug 06:14:35 06:22:37 71° 117° (ESE) 06:30:40 435.175 FM
MaSat-1 01 Aug 06:17:14 06:22:33 73° 61° (ENE) 06:27:32 437.345 MHz
Uosat F 01 Aug 06:24:01 06:28:41 40° 292° (WNW) 06:33:20 435.120 FM
Hamsat 01 Aug 06:33:53 06:37:31 26° 95° (E) 06:41:10 145.90 MHz
Saudisat 1A 01 Aug 07:04:40 07:08:51 43° 118° (ESE) 07:13:03 436.775 MHz
AO-7 01 Aug 07:22:58 07:30:19 37° 303° (WNW) 07:37:38 29.400 - 29.500 MHz
STRAND 1 01 Aug 07:24:00 07:29:06 66° 258° (WSW) 07:34:14 ?
JAS-2 01 Aug 07:46:07 07:52:01 89° 285° (WNW) 07:57:20 435.800 - 435.900 CW/SSB, 435.910 FM
SO-67 01 Aug 07:50:13 07:53:08 25° 95° (E) 07:56:02 435.3500 MHz FM
MaSat-1 01 Aug 07:56:04 07:59:11 16° 260° (W) 08:02:11 437.345 MHz
Sapphire 01 Aug 08:00:58 08:04:48 19° 39° (NE) 08:08:37 437.095 MHz 1200 baud AX-25 AFSK
Hamsat 01 Aug 08:09:42 08:13:29 30° 291° (WNW) 08:17:16 145.90 MHz
KITSAT 1 01 Aug 08:11:25 08:18:39 35° 320° (NW) 08:25:56 435.175 FM
PCSat 01 Aug 08:33:33 08:38:23 31° 47° (NE) 08:43:11 145.825 MHz
Saudisat 1A 01 Aug 08:44:52 08:48:36 26° 317° (NW) 08:52:22 436.775 MHz
SO-67 01 Aug 09:23:27 09:26:05 20° 292° (WNW) 09:28:42 435.3500 MHz FM
JAS-2 01 Aug 09:33:07 09:36:06 14° 306° (NW) 09:38:58 435.800 - 435.900 CW/SSB, 435.910 FM
Sapphire 01 Aug 09:43:31 09:48:59 89° 240° (WSW) 09:54:25 437.095 MHz 1200 baud AX-25 AFSK
Oscar 11 01 Aug 09:47:33 09:48:54 11° 89° (E) 09:50:14 145.825 FM, Beacon 2401.500 USB
HO-68 01 Aug 10:03:46 10:10:43 51° 101° (E) 10:17:37 435.675 MHz FM
KITSAT 1 01 Aug 10:12:24 10:16:59 16° 348° (NNW) 10:21:34 435.175 FM
PCSat 01 Aug 10:16:48 10:21:58 45° 247° (WSW) 10:27:05 145.825 MHz
UKube-1 01 Aug 10:39:58 10:44:21 76° 103° (ESE) 10:48:41 145.840 MHz, 145.915 MHz
SO-50 01 Aug 10:56:37 10:57:36 11° 107° (ESE) 10:58:34 436.795 FM
RS-15 01 Aug 11:19:54 11:24:38 14° 95° (E) 11:29:19 29.354 - 29.394 USB, Beacon 29.352 USB
Oscar 11 01 Aug 11:21:14 11:25:34 71° 285° (WNW) 11:29:53 145.825 FM, Beacon 2401.500 USB
Sapphire 01 Aug 11:29:19 11:31:34 13° 258° (WSW) 11:33:50 437.095 MHz 1200 baud AX-25 AFSK
HO-68 01 Aug 11:51:54 11:58:10 35° 299° (WNW) 12:04:26 435.675 MHz FM
FUNcube-1 01 Aug 11:52:45 11:56:58 85° 284° (WNW) 12:01:13 145.950 - 145.970 MHz USB
KITSAT 1 01 Aug 12:11:06 12:16:18 18° 19° (NNE) 12:21:29 435.175 FM
UKube-1 01 Aug 12:18:11 12:19:57 12° 300° (WNW) 12:21:42 145.840 MHz, 145.915 MHz
SO-50 01 Aug 12:32:55 12:37:23 88° 304° (NW) 12:41:59 436.795 FM
Oscar 19 01 Aug 12:35:33 12:38:50 17° 60° (ENE) 12:42:07 437.125 CW, 437.150 USB
